User: anonymous   Login
Location: Unspecified
(0.0000°N, 0.0000°E)
Time: 06:18:22
(UTC+00:00)
Language:

SICH 2 - Orbit

View from above orbital plane
View from above orbital plane
View from above satellite
View from above satellite

Ground track
Ground track

The orbit data is extracted from the following two-line orbital elements,

1 37794U 11044G   18175.29762309  .00000050  00000-0  19282-4 0  9991
2 37794  98.0341 247.0247 0013294  26.3551  15.4117 14.61777631365460
Epoch (UTC): 24 June 2018 07:08:34
Eccentricity: 0.0013294
inclination: 98.0341°
perigee height: 678 km
apogee height: 697 km
right ascension of ascending node: 247.0247°
argument of perigee: 26.3551°
revolutions per day: 14.61777631
mean anomaly at epoch: 15.4117°
orbit number at epoch: 36546

The dashed part of the orbit path shows where the satellite is in the earth's shadow,  

DLR